FENGYUN 1C DEB, 37018

Orbit data source: Space-Track

FENGYUN 1C DEB, 37018 is space debris in SSO originally from a launch on Mon, 10 May 1999 UTC launched from the Taiyaun Space Center, China (TSC). Fengyun 1C debris stems from the Chinese weather satellite Fengyun-1C, which was intentionally destroyed by a Chinese anti-satellite missile in 2007. This event dramatically increased the amount of space debris, with thousands of trackable fragments posing hazards to satellites and human spaceflight. The Fengyun 1C debris cloud has become a focal point in discussions about space sustainability and the need for international regulations to prevent the creation of new debris.

Loading next visibility...
Identifier
37018, 1999-025EDA
Orbit
SSO
Country
Flag of CNCN / PRC
Related business
Manufacturer
Unknown
Mission
Spacecraft
Bus & Motor
Unknown
Mass
Unknown
Launch date (UTC)
1999-05-10 (27 years ago)
Launch vehicle
Unknown
Launch site
Taiyaun Space Center, China (TSC)
Object type
Payload
Rocket body
Debris
Shape & HBR
Unknown shape, 0.1 m
Radar Cross Section
Small (<0.1 m²)

Expand to show TLE details & history
Last TLE update: 1 day ago

TLE from 1 day ago
0 FENGYUN 1C DEB
1 37018U 99025EDA 26143.85664735  .00014143  00000-0  32208-2 0  9994
2 37018  98.5040   2.5296 0193728 150.6622 210.5614 14.45025995658689
Epoch: 2026-05-23T20:33Z
TLE epoch observation values (Epoch: 2026-05-23T20:33:34.331Z)
Latitude
0.00001°
Longitude
172.66942°
Altitude
864.371 km
Speed
7.358 km/s
True Right ascension
00h 10m 07s
True Declination
0° 00' 00"
Sunlit
Object was in daylight at epoch
Visualization orbit readout
Latitude
Unknown
Longitude
Unknown
Altitude
Unknown
Speed
Unknown
Apparent Right ascension
Unknown
Apparent Declination
Unknown
Sunlit
N/A
Visualization observer readout
Local Sidereal Time
10:08:37
Azimuth
Unknown
Elevation
Unknown
Doppler factor
Unknown
Orbital elements
Apogee altitude
876.934 km
Perigee altitude
601.175 km
Semi-major axis
7,117.191 km
Eccentricity
0.01937
Inclination
98.504°
RAAN
2.5296°
Arg. of periapsis
150.6622°
True anomaly
209.45578°
Mean anomaly
210.5614°
Eccentric anomaly
210.0063°
Mean motion
3.61477 °/min
Orbital period
99.59 mins
BSTAR
0.0032208
Loading maneuver chart data...
Computing Atmospheric mass density...

Documentation

Showing up to 5 results
|